Portada
METAR-TAF:

METAR-TAF

Aeropuertos :

Red Oak Municipal Airport

Red Oak, Iowa, Estados Unidos

latitud: 41-01N, longitud: 095-16W, altitud: 318 m

Observación

El informe se hizo hace 20 minutos, a las 06:55 UTC
Viento 10 kt del sureste
Temperatura 26°C
Humedad 79%
Presión 1012 hPa
Visibilidad: 16.1 km
Cielo despejado

METAR: KRDK 070655Z AUTO 14010KT 10SM CLR 26/22 A2988 RMK AO2

Hora: 02:15 (07:15 UTC)


TAF: falta

Observaciones y pronósticos meteorológicos de más de 4000 aeropuertos (mensajes METAR y TAF).

Los puntos amarillos y rojos representan las estaciones disponibles.

Ponga el ratón en el punto deseado para ver el nombre de la estación.

Haga clic para ver las observaciones y los pronósticos meteorológicos.

Para cambiar el mapa : haga clic en los botones verdes con una cruz de color negro para hacer un zoom, en el botón verde con un guión para alejar o en las flechas verdes para mapas adyacentes.


METAR-TAF: